Sauk Centre, MN

11:57 AM CDT on May 24, 2017 (GMT -0500)
Sauk Centre

Weather History for KD39 - August, 2013

Change the Weather History Date:

Wednesday, August 21, 2013

  Actual Average (KGHW) Record (KGHW)
Temperature  
Mean Temperature 78 °F -  
Max Temperature 88 °F 78 °F 92 °F (1972)
Min Temperature 69 °F 57 °F 39 °F (2004)
Cooling Degree Days 14    
Growing Degree Days 28 (Base 50)    
Moisture  
Dew Point 64 °F    
Average Humidity 69    
Maximum Humidity 99    
Minimum Humidity 32    
Precipitation  
Precipitation 0.00 in - - ()
Sea Level Pressure  
Sea Level Pressure 29.92 in    
Wind  
Wind Speed 6 mph (NNE)    
Max Wind Speed 16 mph    
Max Gust Speed 22 mph    
Visibility 8 miles    
Events      
Averages and records for this station are not official NWS values.
T = Trace of Precipitation, MM = Missing Value Source: NWS Daily Summary

Daily Weather History Graph

Daily Weather History Graph

Search for Another Location

Airport or City:

Trip Planner

Search our weather history database for the weather conditions in past years. The results will help you decide how hot, cold, wet, or windy it might be!

Date:

Astronomy

Aug. 21, 2013 Rise Set
Actual Time 6:27 AM CDT 8:17 PM CDT
Civil Twilight 5:55 AM CDT 8:48 PM CDT
Nautical Twilight 5:16 AM CDT 9:27 PM CDT
Astronomical Twilight 4:34 AM CDT 10:09 PM CDT
Moon 8:19 PM CDT (8/21) 7:13 AM CDT (8/21)
Length of Visible Light 14h 52m
Length of Day
13h 49m
Waxing Gibbous, 99% of the Moon is Illuminated
Aug 21
Waxing Gibbous
Aug 28
Last Quarter
Sep 5
New
Sep 12
First Quarter
Sep 19
Full

Hourly Weather History & Observations

Time (CDT) Temp. Heat Index Dew Point Humidity Pressure Visibility Wind Dir Wind Speed Gust Speed Precip Events Conditions
12:13 AM 72.5 °F - 70.9 °F 95% 29.83 in 5.0 mi SSE 8.1 mph - N/A   Clear
12:32 AM 72.1 °F - 70.9 °F 96% 29.83 in 5.0 mi SSE 8.1 mph - N/A   Clear
12:53 AM 72.5 °F - 71.2 °F 96% 29.82 in 5.0 mi SSE 9.2 mph - N/A   Clear
1:12 AM 73.4 °F - 71.6 °F 94% 29.84 in 7.0 mi SSW 6.9 mph - N/A   Clear
1:32 AM 72.7 °F - 71.1 °F 95% 29.84 in 7.0 mi SW 4.6 mph - N/A   Clear
1:53 AM 72.1 °F - 70.9 °F 96% 29.84 in 5.0 mi South 3.5 mph - N/A   Clear
2:12 AM 71.6 °F - 70.7 °F 97% 29.83 in 4.0 mi SSE 4.6 mph - N/A   Clear
2:32 AM 71.1 °F - 70.3 °F 98% 29.83 in 4.0 mi SSE 4.6 mph - N/A   Clear
2:53 AM 71.2 °F - 70.5 °F 98% 29.84 in 4.0 mi SSW 4.6 mph - N/A   Clear
3:12 AM 71.2 °F - 70.3 °F 97% 29.84 in 4.0 mi Calm Calm - N/A   Clear
3:32 AM 71.2 °F - 70.3 °F 97% 29.83 in 4.0 mi Calm Calm - N/A   Clear
3:53 AM 70.2 °F - 69.8 °F 99% 29.82 in 3.0 mi South 5.8 mph - N/A   Clear
4:12 AM 70.7 °F - 70.2 °F 98% 29.82 in 3.0 mi South 4.6 mph - N/A   Clear
4:32 AM 70.3 °F - 69.8 °F 98% 29.82 in 2.5 mi South 5.8 mph - N/A   Clear
4:53 AM 70.2 °F - 69.8 °F 99% 29.82 in 2.0 mi Calm Calm - N/A   Clear
5:12 AM 70.2 °F - 69.8 °F 99% 29.82 in 2.5 mi Calm Calm - N/A   Clear
5:32 AM 70.5 °F - 70.0 °F 98% 29.83 in 3.0 mi Calm Calm - N/A   Clear
5:53 AM 70.7 °F - 70.2 °F 98% 29.84 in 3.0 mi Calm Calm - N/A   Clear
6:12 AM 70.2 °F - 69.8 °F 99% 29.84 in 2.5 mi Calm Calm - N/A   Clear
6:32 AM 70.2 °F - 69.8 °F 99% 29.85 in 2.0 mi Calm Calm - N/A   Clear
6:53 AM 69.8 °F - 69.4 °F 99% 29.85 in 1.2 mi Calm Calm - N/A   Mist
7:12 AM 69.8 °F - 69.4 °F 99% 29.85 in 1.2 mi Calm Calm - N/A   Mist
7:32 AM 70.7 °F - 70.5 °F 99% 29.85 in 1.8 mi Calm Calm - N/A   Mist
7:53 AM 71.6 °F - 70.7 °F 97% 29.86 in 2.5 mi Calm Calm - N/A   Clear
8:12 AM 71.8 °F - 70.9 °F 97% 29.87 in 3.0 mi South 4.6 mph - N/A   Scattered Clouds
8:32 AM 72.7 °F - 71.1 °F 95% 29.87 in 4.0 mi Calm Calm - N/A   Mostly Cloudy
8:53 AM 72.9 °F - 71.4 °F 95% 29.88 in 4.0 mi WSW 3.5 mph - N/A   Overcast
9:12 AM 74.1 °F - 72.0 °F 93% 29.89 in 5.0 mi West 3.5 mph - N/A   Overcast
9:33 AM 76.3 °F - 72.0 °F 86% 29.89 in 7.0 mi WNW 3.5 mph - N/A   Overcast
9:53 AM 77.0 °F - 70.7 °F 81% 29.90 in 10.0 mi North 6.9 mph - N/A   Overcast
10:12 AM 78.6 °F - 70.9 °F 77% 29.91 in 10.0 mi NNE 4.6 mph - N/A   Mostly Cloudy
10:32 AM 78.4 °F - 70.7 °F 77% 29.92 in 10.0 mi NNW 5.8 mph - N/A   Scattered Clouds
10:52 AM 79.3 °F - 69.8 °F 72% 29.92 in 10.0 mi North 6.9 mph - N/A   Scattered Clouds
11:13 AM 80.4 °F 83.8 °F 70.3 °F 71% 29.92 in 10.0 mi North 6.9 mph - N/A   Scattered Clouds
11:32 AM 81.0 °F 84.6 °F 70.2 °F 70% 29.92 in 10.0 mi NNW 6.9 mph - N/A   Scattered Clouds
11:52 AM 81.1 °F 84.2 °F 68.9 °F 66% 29.93 in 10.0 mi North 8.1 mph - N/A   Scattered Clouds
12:12 PM 81.7 °F 84.5 °F 67.8 °F 63% 29.94 in 10.0 mi NNE 10.4 mph - N/A   Clear
12:32 PM 83.5 °F 86.4 °F 67.8 °F 59% 29.94 in 10.0 mi NNW 8.1 mph - N/A   Clear
12:53 PM 84.4 °F 87.1 °F 67.3 °F 56% 29.94 in 10.0 mi NNW 9.2 mph - N/A   Clear
1:12 PM 84.9 °F 87.4 °F 66.7 °F 54% 29.94 in 10.0 mi NNW 11.5 mph - N/A   Clear
1:32 PM 85.8 °F 87.6 °F 64.9 °F 50% 29.94 in 10.0 mi NNW 11.5 mph - N/A   Clear
1:53 PM 87.1 °F 88.0 °F 63.5 °F 45% 29.95 in 10.0 mi North 15.0 mph - N/A   Clear
2:12 PM 87.1 °F 87.2 °F 61.5 °F 42% 29.95 in 10.0 mi NNE 8.1 mph - N/A   Clear
2:32 PM 88.0 °F 87.1 °F 58.8 °F 37% 29.96 in 10.0 mi North 10.4 mph 21.9 mph N/A   Clear
2:53 PM 88.5 °F 87.5 °F 58.6 °F 36% 29.97 in 10.0 mi NE 12.7 mph 16.1 mph N/A   Clear
3:12 PM 88.5 °F 87.1 °F 56.8 °F 34% 29.97 in 10.0 mi North 16.1 mph - N/A   Clear
3:32 PM 88.0 °F 87.6 °F 59.9 °F 39% 29.97 in 10.0 mi NNE 11.5 mph 17.3 mph N/A   Clear
3:53 PM 87.8 °F 86.3 °F 56.3 °F 34% 29.97 in 10.0 mi NNE 15.0 mph 18.4 mph N/A   Clear
4:12 PM 87.8 °F 85.9 °F 54.9 °F 32% 29.97 in 10.0 mi NNE 9.2 mph - N/A   Clear
4:32 PM 85.8 °F 84.5 °F 55.9 °F 36% 29.97 in 10.0 mi North 8.1 mph - N/A   Clear
4:52 PM 85.3 °F 84.3 °F 56.7 °F 38% 29.98 in 10.0 mi NNE 8.1 mph - N/A   Clear
5:12 PM 85.1 °F 83.8 °F 55.2 °F 36% 29.98 in 10.0 mi NNE 8.1 mph - N/A   Clear
5:32 PM 85.3 °F 83.8 °F 54.7 °F 35% 29.98 in 10.0 mi North 10.4 mph - N/A   Clear
5:52 PM 84.6 °F 83.2 °F 54.9 °F 36% 29.99 in 10.0 mi NNE 8.1 mph - N/A   Clear
6:12 PM 84.7 °F - 52.7 °F 33% 29.99 in 10.0 mi NNE 10.4 mph - N/A   Clear
6:33 PM 83.1 °F 81.9 °F 53.2 °F 36% 29.98 in 10.0 mi NNE 6.9 mph - N/A   Clear
6:52 PM 82.6 °F - 52.7 °F 35% 29.99 in 10.0 mi North 6.9 mph - N/A   Clear
7:12 PM 82.2 °F 81.4 °F 54.0 °F 38% 29.99 in 10.0 mi NNE 6.9 mph - N/A   Clear
7:33 PM 80.2 °F 80.3 °F 55.4 °F 42% 29.99 in 10.0 mi NNE 3.5 mph - N/A   Clear
7:52 PM 78.8 °F - 56.7 °F 46% 29.99 in 10.0 mi NNE 3.5 mph - N/A   Clear
8:12 PM 77.4 °F - 56.8 °F 49% 30.00 in 10.0 mi Calm Calm - N/A   Clear
8:33 PM 73.6 °F - 57.4 °F 57% 30.01 in 10.0 mi Calm Calm - N/A   Clear
8:52 PM 72.7 °F - 59.0 °F 62% 30.02 in 10.0 mi Calm Calm - N/A   Clear
9:12 PM 71.8 °F - 59.7 °F 66% 30.03 in 10.0 mi NE 4.6 mph - N/A   Clear
9:33 PM 74.3 °F - 56.8 °F 54% 30.04 in 10.0 mi NE 5.8 mph - N/A   Clear
9:52 PM 74.1 °F - 56.5 °F 54% 30.04 in 10.0 mi NE 5.8 mph - N/A   Clear
10:12 PM 73.4 °F - 56.3 °F 55% 30.04 in 10.0 mi NE 6.9 mph - N/A   Clear
10:33 PM 72.7 °F - 55.8 °F 55% 30.04 in 10.0 mi NE 9.2 mph - N/A   Clear
10:52 PM 72.5 °F - 55.8 °F 56% 30.04 in 10.0 mi NE 9.2 mph - N/A   Clear
11:12 PM 71.8 °F - 55.4 °F 56% 30.04 in 10.0 mi NNE 8.1 mph - N/A   Clear
11:33 PM 70.9 °F - 54.5 °F 56% 30.04 in 10.0 mi NNE 6.9 mph - N/A   Clear
11:52 PM 69.6 °F - 54.7 °F 59% 30.05 in 10.0 mi ENE 3.5 mph - N/A   Clear